Wind_Speed
32 32 33 33 32 32 30 27 26 25 25 26 28 31 33 34 36 37 37 37 36 36 35 35 36 35 34 33 32 31 30 29 27 26 24 23 22 20 18 17 16 14 14 13 12 11 10 9 9 8 6 5 5 5 5 5 6 7 7 6 6 6 5 5 4 5 6 7 7 8 10 12 13 14 14 14 13 13 12 11 10 10 10 11 11
32 32 33 33 33 34 32 31 30 30 31 34 36 37 39 40 41 41 42 42 42 41 41 42 42 41 41 40 40 39 37 36 35 34 33 33 31 29 27 24 21 18 16 14 13 12 11 10 9 8 8 7 6 5 5 4 5 6 6 6 5 5 4 4 4 4 6 6 7 7 8 9 10 11 13 14 15 15 14 14 13 12 12 12 12
32 32 33 33 33 33 33 34 34 34 35 37 38 39 41 42 42 43 43 43 42 42 42 43 44 44 45 45 45 44 43 42 41 41 40 39 39 38 37 35 32 28 24 20 17 14 11 9 8 8 8 7 6 5 5 4 4 4 4 5 5 5 4 4 5 6 7 8 9 10 10 10 10 9 10 12 13 15 15 16 16 16 15 15 15
31 31 31 31 31 32 33 35 36 35 36 37 38 40 41 41 41 42 42 42 42 41 41 41 41 42 43 44 45 46 46 46 46 45 44 44 44 43 43 43 42 39 36 32 27 21 16 11 8 7 6 6 5 4 4 3 3 3 2 3 4 5 5 6 7 8 9 9 10 11 11 12 11 10 10 11 12 13 15 15 17 17 18 18 18
30 29 30 30 31 33 35 36 36 35 35 36 38 39 39 40 40 40 40 40 40 40 39 38 38 39 40 41 41 42 43 44 45 46 46 46 46 46 46 47 48 48 46 44 40 35 29 22 16 10 7 5 4 3 2 3 3 2 2 2 2 4 5 6 7 7 8 8 9 10 10 11 11 11 12 13 13 14 14 15 16 17 18 18 19
28 28 30 31 33 34 35 36 35 34 34 35 36 37 37 38 38 38 37 38 38 38 37 37 36 36 37 38 39 39 39 41 42 43 44 44 45 46 47 47 48 50 51 50 48 46 43 38 30 22 15 9 5 3 3 3 3 4 4 3 3 3 3 4 5 6 6 7 7 8 9 10 11 12 13 14 14 14 14 14 14 15 17 18 19
27 28 29 31 33 34 35 35 34 33 32 33 33 34 34 35 35 35 35 35 36 36 35 34 33 33 33 35 36 36 37 38 38 39 40 41 42 43 45 46 47 48 49 51 52 52 51 49 44 37 29 21 14 9 6 5 5 6 6 6 6 5 5 4 5 5 6 7 8 8 9 9 10 11 12 13 14 15 15 15 15 15 16 17 18
27 27 27 29 32 33 34 34 33 31 30 30 30 30 30 31 31 32 33 33 34 34 33 33 32 31 31 32 33 33 33 34 34 34 35 36 38 39 40 42 44 45 47 48 50 52 53 53 51 48 43 37 30 23 17 12 10 9 9 8 8 8 7 7 7 7 8 8 9 9 9 9 10 11 12 13 14 15 16 17 18 18 18 18 19
25 24 24 26 29 31 32 32 31 30 29 27 26 25 25 26 27 29 30 30 31 32 33 33 33 32 31 31 31 30 29 29 28 29 31 32 33 34 35 37 39 41 44 46 47 48 50 52 52 51 50 47 43 37 32 26 22 19 16 14 13 12 11 10 10 10 10 10 11 11 11 11 11 12 13 14 15 16 16 17 18 19 20 21 21
23 22 22 23 26 29 30 30 30 29 28 27 26 24 22 22 23 25 27 28 29 30 31 32 33 33 33 32 31 29 28 27 26 26 26 26 28 30 31 33 36 38 40 42 44 45 46 47 49 50 50 49 48 45 41 38 35 31 28 25 23 21 20 18 17 17 16 16 16 16 16 16 16 16 16 16 16 16 16 16 17 18 19 20 22
20 20 20 21 23 25 27 28 28 28 28 28 28 28 26 22 21 23 24 25 27 28 29 30 31 32 33 33 33 32 31 31 30 28 25 23 23 25 27 29 31 34 36 37 39 41 42 43 43 45 46 47 47 46 44 42 40 38 37 35 34 32 31 30 29 27 27 26 26 25 24 24 24 23 23 22 22 21 20 20 19 18 18 19 19
17 17 18 18 19 21 23 24 25 26 27 27 28 29 28 25 23 22 22 24 25 26 27 28 29 30 32 32 33 33 34 34 34 33 31 28 25 23 23 25 27 30 31 33 35 36 38 39 40 40 41 43 43 44 44 43 42 41 40 39 39 38 37 36 35 34 33 33 32 32 31 31 30 30 30 29 29 28 28 27 27 26 26 26 25
15 16 16 16 17 18 19 20 22 22 23 24 25 26 27 26 24 23 22 23 24 24 25 25 26 28 30 31 32 33 33 34 35 35 34 33 31 27 23 22 23 25 27 29 31 32 33 35 36 38 38 39 39 40 40 41 41 40 40 39 39 38 37 36 35 34 34 33 33 33 32 32 32 32 31 31 31 31 31 31 31 31 31 31 32
13 14 15 15 16 17 17 18 19 20 21 22 22 23 23 23 23 22 22 22 22 22 22 23 24 26 28 29 30 31 32 33 33 34 35 35 35 34 30 25 21 21 23 25 27 28 30 31 32 34 35 36 36 36 36 36 37 37 37 37 37 36 35 34 34 33 32 32 31 31 31 31 31 31 31 31 31 32 32 32 32 33 33 34 34
12 13 14 14 15 15 16 16 17 18 20 20 20 20 20 21 20 20 20 20 20 20 20 21 23 24 26 27 28 29 29 30 31 32 33 34 35 36 35 32 26 21 19 21 23 24 25 27 28 30 31 32 32 33 32 32 32 33 33 34 34 34 33 33 33 33 32 32 31 31 31 31 32 32 32 32 32 33 33 33 33 34 35 35 36
10 11 12 12 12 13 14 14 15 16 17 18 18 18 18 18 18 18 18 18 18 19 19 20 21 23 24 24 26 27 27 28 29 30 31 32 34 34 35 35 33 29 23 19 18 20 22 23 24 25 26 27 28 29 29 29 29 29 29 29 30 30 30 31 31 31 31 31 31 31 31 31 32 32 32 32 32 33 33 34 35 35 37 38 39
8 9 10 10 11 12 12 13 13 13 14 15 15 15 15 15 16 16 16 16 17 17 18 19 20 21 22 23 24 25 26 27 28 29 30 30 32 33 33 34 34 34 31 26 20 17 18 19 20 21 22 23 24 25 25 26 26 26 26 26 26 26 26 26 26 27 27 27 28 28 29 29 30 30 30 31 31 32 33 34 35 36 37 39 40
6 7 8 9 10 10 11 12 12 12 12 12 12 13 13 13 14 14 14 14 15 16 17 18 19 20 22 23 24 24 25 26 27 28 28 29 30 31 32 33 33 33 33 32 27 22 19 17 17 18 19 19 20 20 21 21 22 22 22 22 22 22 22 22 22 23 24 25 25 26 27 28 28 29 30 30 31 32 33 34 35 36 37 38 40
6 6 7 8 9 9 10 10 10 11 11 11 11 11 12 12 12 12 13 13 14 15 16 17 18 20 21 22 23 23 24 25 26 27 27 28 29 29 30 31 32 32 32 32 31 30 27 23 19 17 16 16 16 17 17 17 18 18 18 19 19 19 19 20 21 22 23 24 25 25 26 27 28 28 29 30 31 32 33 34 36 37 37 39 40
7 6 6 7 8 8 8 8 8 9 9 10 10 10 11 11 12 12 13 13 14 14 15 17 18 19 20 21 21 22 24 25 26 27 27 28 28 29 30 30 31 31 31 31 32 32 31 29 26 22 18 17 16 16 16 15 15 15 15 16 16 17 18 19 20 21 22 23 24 25 25 26 27 27 28 29 30 32 33 35 36 38 39 40 41
7 6 6 7 6 6 6 6 6 7 8 8 9 10 10 11 11 12 13 14 14 15 16 17 18 19 20 20 21 22 23 25 26 26 27 28 28 29 30 30 30 31 31 32 33 32 31 31 30 28 26 23 20 18 17 16 16 16 16 15 16 17 18 19 20 20 20 21 22 23 24 25 25 26 27 29 30 31 33 35 36 38 39 40 41
7 6 6 6 5 4 3 4 4 5 6 8 9 9 10 11 11 12 13 14 15 16 17 17 18 19 20 21 22 23 23 24 25 26 26 27 28 28 29 29 30 31 31 32 31 31 31 32 32 31 30 29 26 22 19 19 18 19 19 18 17 17 17 18 19 20 19 19 20 21 22 23 24 25 27 28 29 31 32 34 36 37 39 40 41
8 7 7 6 4 3 1 1 2 4 6 7 9 10 11 11 12 13 13 14 15 16 17 18 19 20 21 22 23 24 24 25 25 26 26 27 27 27 28 28 29 30 30 30 30 30 31 32 32 33 32 32 30 28 25 22 20 20 20 20 19 19 18 18 18 19 20 20 19 20 20 21 23 24 25 27 28 30 32 34 35 37 38 40 41
9 9 9 7 6 4 2 1 1 3 5 7 8 10 11 12 13 13 14 15 16 17 17 18 19 20 21 22 23 24 25 26 26 27 27 27 27 28 28 28 28 28 29 29 30 31 32 33 33 34 34 34 33 32 29 26 23 21 21 21 21 21 20 19 18 18 19 20 20 20 20 20 21 22 24 26 28 29 31 33 34 36 38 40 41
11 11 10 9 8 6 4 3 2 3 5 7 8 10 11 12 13 14 15 15 16 17 18 19 19 20 21 22 23 24 25 26 27 28 28 28 28 28 29 29 29 29 29 30 32 33 34 35 35 36 36 36 36 35 33 31 28 25 23 22 22 23 22 21 20 18 18 19 20 20 20 20 21 22 24 25 27 29 30 32 33 35 37 39 41
12 11 11 10 10 8 6 5 4 5 6 8 9 10 12 13 14 14 15 16 16 17 18 19 19 20 21 22 23 24 24 26 27 28 29 29 29 29 30 30 31 31 32 33 34 35 36 37 37 38 38 39 39 38 37 35 31 28 25 23 23 23 23 22 21 20 19 19 19 20 21 22 22 23 24 25 26 28 29 31 33 35 36 38 41
12 11 11 11 11 10 9 7 7 7 8 10 11 11 12 13 14 15 16 16 17 18 18 19 19 20 21 22 23 24 25 26 27 29 30 31 31 32 32 33 34 35 36 37 38 38 39 39 40 40 41 42 42 41 40 38 34 30 26 23 22 23 23 23 23 22 21 20 20 21 22 23 24 25 26 26 27 28 30 32 33 35 37 39 41
12 12 12 12 12 11 11 10 9 10 10 11 12 13 13 14 15 16 17 17 18 19 19 20 21 21 22 23 24 25 26 27 29 30 32 33 34 35 35 36 37 38 39 40 41 42 42 43 43 44 44 44 44 43 42 40 37 33 28 24 22 22 23 24 24 24 23 22 22 22 23 24 25 26 28 29 30 31 32 33 35 36 38 40 41
14 14 14 14 13 13 13 13 12 12 12 12 13 15 15 15 16 17 18 18 19 20 21 22 23 23 24 25 25 26 27 29 31 33 34 36 37 37 38 39 39 41 42 43 44 45 45 46 47 47 47 47 46 45 43 41 38 35 31 27 23 21 22 23 24 25 25 24 24 24 23 24 25 27 29 30 32 34 34 34 35 37 39 41 42
15 16 16 16 15 15 15 15 15 14 14 14 14 15 16 17 17 18 19 20 20 21 22 23 24 25 25 26 27 28 29 30 32 34 36 37 38 39 40 41 42 43 44 45 46 47 48 49 50 50 50 49 48 46 43 41 38 35 32 30 26 23 22 23 23 24 24 25 25 26 25 25 26 27 29 30 32 34 36 36 37 38 40 42 43
17 18 18 18 17 17 17 17 17 17 17 16 16 16 17 17 18 19 21 21 22 22 23 24 25 26 27 27 28 29 30 31 33 35 37 38 39 40 41 43 44 45 46 48 49 50 51 52 53 52 51 49 47 44 42 40 37 35 32 31 29 26 24 23 23 23 23 24 25 27 28 28 28 28 29 31 32 35 37 38 38 39 41 42 44
19 19 20 20 19 19 19 19 19 20 20 19 18 18 18 18 18 19 21 22 23 24 25 26 27 28 29 29 29 30 31 32 34 36 38 39 40 41 43 45 46 48 50 51 52 53 53 53 52 51 49 46 44 41 40 38 37 35 32 31 30 28 25 24 23 22 22 23 24 26 28 29 29 30 31 31 32 34 37 39 39 39 41 42 44
22 22 22 22 21 21 21 21 21 22 22 22 21 20 20 19 19 19 20 22 24 25 26 28 29 29 30 31 31 31 32 34 36 38 39 40 42 43 45 47 49 51 52 54 54 53 52 50 48 46 45 43 41 39 38 37 36 35 33 31 30 29 26 24 23 22 21 22 23 25 26 28 29 31 32 32 33 35 37 39 39 40 41 43 44
24 24 24 24 23 23 23 23 23 23 23 23 23 23 22 21 21 21 21 22 24 26 28 29 30 31 31 32 32 33 34 36 38 39 40 42 44 46 48 50 51 53 54 53 52 51 49 47 44 42 41 41 40 39 37 37 36 35 34 32 31 29 27 25 23 22 21 21 23 24 25 26 28 30 32 32 33 35 37 38 40 40 41 42 44
27 26 25 25 24 24 24 25 25 24 24 24 24 24 24 24 23 23 23 23 24 26 28 30 31 31 32 32 34 35 36 38 39 41 42 44 46 48 50 52 53 53 52 50 48 47 46 45 43 42 40 40 40 39 38 36 36 35 33 33 31 29 27 25 23 22 21 22 22 24 25 26 27 29 31 32 33 35 37 38 39 41 41 43 45
28 28 27 26 26 26 26 26 26 26 25 25 25 25 25 25 25 25 25 26 26 27 29 31 31 32 32 34 35 37 38 40 41 43 45 47 49 50 51 52 51 49 47 45 44 44 43 43 43 42 41 40 39 39 38 37 36 35 34 32 31 29 27 25 22 21 21 22 22 23 25 26 27 29 30 32 33 35 36 38 39 41 42 43 45
30 29 28 27 27 27 27 26 26 26 26 26 26 26 26 26 26 26 27 27 28 29 30 31 32 33 34 36 37 38 39 41 43 46 48 49 51 51 50 49 46 44 43 42 42 42 42 42 41 41 41 40 40 39 39 38 37 36 35 33 30 29 27 24 21 20 20 21 22 23 25 27 27 28 30 32 33 34 35 37 39 41 43 44 45
30 29 28 28 27 27 27 27 26 26 26 26 26 26 27 27 27 27 28 28 29 30 31 32 33 35 36 38 39 40 41 43 46 48 50 51 51 49 47 44 42 40 40 40 41 41 41 41 40 39 39 39 39 39 39 39 39 38 37 34 30 29 27 23 20 20 19 20 21 22 24 26 27 28 30 31 33 33 34 37 40 42 45 46 47
31 29 28 27 27 27 26 26 26 25 25 25 26 26 26 27 28 29 29 30 30 31 32 33 35 36 38 39 41 43 45 46 48 49 49 49 48 45 43 42 41 39 39 39 39 40 40 40 39 39 39 38 38 37 37 39 40 39 37 34 29 27 26 23 19 19 20 20 21 21 24 27 27 28 29 31 32 33 34 37 40 43 46 48 49
30 28 27 27 26 26 26 26 25 25 24 25 25 25 26 27 28 29 31 32 32 33 34 35 37 38 40 41 43 45 47 48 49 48 46 43 41 40 40 40 40 40 39 39 39 39 39 39 39 39 39 38 38 37 37 38 38 38 36 33 28 25 24 22 18 18 20 22 21 21 23 27 28 28 29 31 33 34 35 38 41 44 47 50 51
29 27 26 26 26 26 26 25 25 24 24 24 25 25 26 27 29 30 32 33 34 35 35 36 38 41 43 45 47 48 48 48 46 44 41 38 37 37 37 37 38 38 39 39 39 38 39 39 39 39 39 39 38 38 38 37 36 36 34 31 27 22 21 21 18 17 20 23 24 23 24 27 30 31 32 33 35 37 38 40 43 46 48 51 53
28 27 26 26 25 26 26 26 26 26 26 26 26 26 28 29 30 31 33 34 36 37 37 39 41 44 46 48 49 48 47 45 42 39 36 35 35 35 35 35 36 36 37 38 38 37 38 39 40 40 41 41 40 40 40 38 36 35 33 30 27 22 20 20 19 18 20 23 26 27 27 29 33 35 36 37 39 41 43 44 46 48 50 52 55
28 27 27 26 26 26 27 27 28 28 28 27 28 28 29 30 31 32 34 35 37 38 40 42 45 47 48 49 48 46 43 39 36 35 34 33 33 33 33 33 34 34 36 37 37 37 38 40 40 40 40 41 41 40 40 37 35 33 32 29 26 23 20 20 21 22 22 24 28 31 32 33 36 38 39 40 42 45 46 47 49 51 52 54 57
29 29 28 26 26 27 28 29 29 29 29 29 29 30 31 32 33 34 35 37 39 41 43 45 47 48 48 47 44 41 37 35 33 31 31 30 31 31 31 32 33 34 34 35 35 35 37 39 40 40 39 39 39 39 37 35 32 30 30 28 25 23 22 22 23 25 26 28 30 34 37 37 37 40 42 43 45 48 50 50 52 53 54 56 58
30 30 29 28 28 29 30 31 31 30 30 30 30 31 32 33 35 36 37 39 41 43 45 47 47 47 45 42 39 36 34 32 30 29 29 29 29 30 31 33 34 35 35 34 33 34 36 38 40 41 40 38 38 37 35 32 29 27 27 27 24 23 23 23 25 28 30 32 34 37 41 41 40 41 44 45 47 50 52 53 54 56 57 58 59
32 32 31 31 31 31 31 32 32 31 31 30 31 32 33 35 36 38 39 42 44 45 46 46 45 43 39 37 35 33 32 30 29 29 29 30 31 32 33 35 37 38 36 35 34 36 37 38 38 39 40 38 36 36 35 32 29 26 26 27 26 25 27 28 29 31 33 36 38 41 45 45 44 45 47 48 49 51 53 54 56 56 57 58 58
34 33 33 34 34 33 34 34 34 32 31 32 32 33 34 36 38 40 42 44 46 46 45 43 40 37 35 34 33 31 30 29 29 29 30 33 35 36 37 39 41 41 40 37 37 39 39 39 38 38 40 40 37 35 34 32 29 25 24 25 26 28 32 34 34 36 38 40 43 45 47 49 48 47 48 49 49 51 53 55 56 56 57 58 57
36 36 36 36 36 36 36 36 35 33 33 33 34 34 35 37 40 43 45 46 46 44 41 38 35 34 32 31 30 30 31 30 30 31 32 35 38 39 40 42 43 44 43 41 42 43 42 41 39 37 37 38 38 36 35 32 30 26 23 23 23 27 34 39 42 45 46 48 51 49 49 50 49 47 48 49 49 50 52 54 56 56 57 58 56
39 38 37 37 37 38 38 38 36 34 35 35 35 36 37 39 41 44 45 45 44 40 37 34 33 32 30 30 30 31 32 32 32 33 34 36 38 40 42 43 45 46 46 45 45 46 45 44 41 37 34 34 34 35 35 32 29 25 23 22 22 27 36 42 46 49 50 52 54 52 49 50 49 46 48 48 48 49 50 52 55 55 55 57 55
41 40 39 39 39 40 40 39 37 36 37 37 37 38 39 41 43 44 43 41 38 35 34 33 32 32 31 31 32 33 34 35 35 35 36 37 39 41 42 44 46 48 47 47 47 48 46 43 38 34 32 32 31 32 33 33 31 28 25 24 26 33 41 46 49 50 49 50 51 50 48 49 48 45 46 46 47 48 48 50 52 53 53 55 53
43 42 41 41 41 41 40 39 39 38 38 38 39 40 41 42 43 41 38 35 32 30 30 31 31 32 32 32 33 34 35 36 37 37 37 38 40 42 43 45 46 48 48 48 48 47 44 39 34 30 29 28 28 27 27 28 29 29 29 30 33 38 45 50 53 50 46 46 48 46 44 45 46 44 43 44 46 48 48 48 49 50 51 51 50
Wind_Direction
77 74 72 70 69 67 65 64 65 67 72 76 79 81 81 80 79 77 76 74 73 71 69 69 69 68 66 66 65 63 61 58 55 53 50 46 42 37 30 23 17 11 5 359 354 352 350 346 343 339 331 318 302 288 278 269 262 259 262 268 278 283 286 287 291 300 302 298 295 292 288 282 275 271 269 270 271 274 276 280 282 285 290 294 296
76 74 73 71 69 67 66 67 68 72 80 85 87 86 85 82 80 78 76 74 73 71 70 70 70 69 69 68 68 67 67 66 64 63 61 58 55 51 47 41 37 30 22 13 6 360 353 345 340 336 331 323 313 306 298 287 271 261 258 262 272 284 287 287 296 314 321 319 319 320 318 310 297 283 276 273 273 273 273 274 275 279 283 288 292
78 76 74 72 69 67 67 69 72 78 85 88 89 87 84 82 79 77 75 72 70 69 68 67 67 67 66 66 66 66 66 66 65 65 65 64 62 60 58 54 51 47 42 35 27 17 5 353 342 334 329 326 325 321 313 304 292 279 266 261 264 274 281 285 294 304 311 313 313 314 316 317 314 305 291 283 279 277 276 274 274 276 278 281 284
79 77 75 71 69 69 69 71 75 81 86 89 89 86 82 80 78 75 73 71 69 67 65 64 64 64 63 63 63 62 63 63 63 63 63 62 62 62 61 60 58 55 52 48 43 37 28 17 0 341 327 322 327 331 329 324 316 308 289 267 261 265 272 280 289 296 301 303 303 305 308 309 308 307 304 297 293 288 284 281 278 278 279 280 281
77 76 75 73 72 71 72 73 78 83 87 89 87 83 80 77 75 72 71 69 67 64 63 62 61 61 61 61 60 60 60 60 60 61 61 61 60 60 59 59 59 56 54 51 49 47 43 37 27 13 353 332 324 335 352 358 358 1 358 336 289 275 278 283 291 298 303 305 304 301 301 302 303 307 310 310 307 301 293 287 283 283 283 283 282
77 76 76 76 75 74 75 77 80 83 86 87 85 82 79 75 72 71 69 66 62 61 61 60 60 59 60 60 60 59 58 57 57 57 58 58 58 58 57 57 57 57 54 52 50 49 48 45 42 38 32 25 19 24 36 28 29 33 27 22 10 344 318 303 301 305 310 312 313 311 306 304 304 307 310 311 311 308 302 295 290 288 286 286 286
80 78 78 78 77 76 77 78 80 82 84 85 84 82 78 73 71 69 67 63 59 58 59 59 60 60 60 60 59 58 57 56 55 54 54 54 54 54 54 55 55 56 56 54 51 50 50 49 48 48 49 48 48 50 53 48 46 45 39 34 27 22 12 352 338 329 324 324 323 325 322 317 310 309 308 308 307 306 304 302 299 296 293 292 291
84 79 78 79 78 77 77 78 79 80 79 80 80 79 76 73 70 67 65 61 57 55 56 58 58 59 59 60 58 57 56 56 56 55 54 53 53 51 52 53 53 54 55 55 52 51 50 50 51 52 55 57 57 56 56 54 51 47 42 37 33 28 24 17 12 3 355 351 348 344 340 332 324 318 315 313 311 308 306 305 304 304 303 301 299
86 81 78 79 79 79 78 78 78 78 76 75 75 75 76 75 71 67 63 59 54 52 54 55 56 56 56 57 58 56 55 55 56 57 56 55 55 53 52 52 52 52 52 53 53 52 51 51 51 53 55 58 60 60 60 60 58 55 50 46 41 37 32 27 22 19 13 10 7 3 359 353 347 340 334 330 327 323 317 312 309 308 307 307 306
87 83 79 78 79 80 80 79 77 76 75 73 71 70 74 78 73 66 61 56 53 53 55 56 56 56 56 56 57 56 54 53 54 55 55 55 55 55 54 53 52 52 51 52 53 54 54 53 53 53 55 58 60 61 62 62 62 62 61 59 57 55 53 50 46 43 39 35 33 29 25 21 16 11 6 0 354 349 342 334 326 320 316 313 311
89 85 81 79 79 78 79 78 77 75 73 72 69 68 71 77 75 67 62 57 55 56 56 56 57 57 57 57 57 56 55 54 53 52 52 52 53 54 55 54 53 53 52 51 51 53 55 56 55 55 55 57 59 61 62 63 64 64 64 65 64 63 62 60 58 56 54 52 49 47 45 42 39 37 33 30 27 22 18 12 6 358 350 344 337
91 87 84 82 80 78 77 76 75 74 72 70 70 69 71 74 75 71 67 62 59 57 55 54 55 56 56 56 56 55 55 54 53 52 51 49 48 50 52 53 54 54 54 52 52 52 52 54 56 57 57 57 58 59 61 61 62 62 63 63 62 61 60 59 58 57 56 54 53 52 51 50 49 47 46 44 42 39 37 35 32 29 25 21 18
93 88 85 84 82 78 75 74 72 71 69 69 69 69 71 72 72 72 69 65 60 56 52 50 49 51 52 51 51 51 51 51 51 50 50 49 48 47 46 48 51 53 53 53 52 52 51 51 53 55 57 57 57 57 58 59 60 60 60 60 59 58 58 58 57 57 56 56 55 55 54 54 54 53 52 51 49 48 47 45 44 42 40 38 36
94 89 85 85 83 78 74 72 70 68 67 67 67 67 68 69 68 67 64 61 58 53 49 45 43 44 47 46 45 45 46 47 48 47 47 47 47 47 46 45 46 48 49 51 51 52 51 50 50 51 53 55 56 56 56 57 58 58 58 58 58 58 57 58 58 58 58 58 58 58 58 58 58 58 57 56 55 54 53 51 50 49 47 45 43
99 92 88 86 83 79 74 72 70 68 67 67 67 66 66 66 64 61 59 56 53 49 45 42 39 39 40 41 40 40 40 41 42 43 43 43 44 44 45 45 44 43 43 46 47 47 48 49 49 50 49 51 52 54 55 55 56 57 57 58 58 58 58 57 57 57 58 58 59 59 59 59 58 58 57 56 54 53 51 50 48 47 45 44 42
107 98 91 87 83 79 76 74 72 70 69 67 67 65 63 62 60 57 53 51 47 43 40 38 35 34 35 35 35 34 34 34 36 37 38 39 40 41 41 43 43 42 40 39 39 39 41 43 45 46 46 46 48 49 50 51 52 54 55 56 57 58 58 58 58 58 58 58 58 58 58 58 57 56 54 53 51 49 48 46 43 42 40 38 36
116 106 96 89 84 81 77 75 73 71 70 68 67 65 62 59 55 52 47 44 41 37 33 31 30 29 28 29 29 28 28 28 29 31 32 33 34 35 36 38 39 40 40 38 35 29 30 33 35 38 39 40 43 45 47 47 47 48 50 52 54 55 56 57 58 58 58 58 57 57 56 55 54 52 51 49 48 46 44 42 40 37 35 33 32
129 115 103 94 92 86 79 73 71 69 68 67 65 63 60 56 52 48 44 40 37 33 29 26 25 23 22 23 22 21 21 22 23 25 26 27 28 29 30 31 32 34 36 37 36 32 27 23 21 24 28 31 35 38 41 43 44 44 45 45 47 49 50 51 52 52 52 52 51 51 49 48 47 45 44 42 41 39 38 36 34 32 31 29 28
150 134 114 105 100 91 80 71 67 65 63 62 61 58 55 51 47 43 38 35 32 29 25 22 21 19 17 18 16 14 14 15 17 19 20 21 22 23 24 25 26 27 28 30 32 32 30 26 19 12 11 14 19 23 26 32 37 39 41 41 39 39 40 42 43 43 43 43 42 42 41 39 38 37 35 34 33 32 31 29 28 26 25 24 23
169 154 129 117 108 92 79 71 64 59 56 54 53 51 48 45 41 37 32 28 26 24 21 18 17 15 14 14 12 10 10 10 12 13 14 15 16 17 19 19 19 20 20 22 24 24 25 26 24 17 7 359 359 360 2 9 16 21 27 32 32 30 28 30 32 34 34 35 35 35 34 33 32 30 29 28 27 26 25 24 23 22 21 20 19
182 168 146 129 113 93 78 69 61 52 48 45 43 42 39 36 34 30 25 22 20 18 17 15 13 11 10 10 10 8 7 6 7 9 9 11 11 11 12 12 12 12 13 15 16 15 15 18 19 18 15 7 358 347 339 343 349 353 358 6 13 18 19 20 22 23 25 27 28 29 29 28 28 27 25 24 22 22 21 20 19 18 16 16 15
193 180 159 144 127 107 84 63 53 44 38 33 30 29 27 24 23 20 17 15 13 13 12 11 9 8 7 7 7 6 5 3 3 4 4 6 7 7 7 6 6 7 8 8 8 7 8 9 10 10 11 10 6 355 341 333 331 333 336 341 349 356 3 9 12 14 15 16 18 20 21 22 22 22 21 20 19 17 16 15 14 13 12 11 11
199 190 174 165 161 158 139 74 44 29 21 18 15 14 14 14 13 11 9 7 6 5 5 4 3 3 3 4 4 3 2 0 359 359 359 1 2 2 2 1 1 1 1 1 360 0 2 2 2 2 2 3 2 0 355 344 330 320 320 324 329 333 339 348 357 4 6 7 7 9 11 12 13 14 14 14 13 12 11 10 9 9 8 7 8
200 193 185 186 194 198 200 215 3 3 359 0 1 1 2 5 6 4 2 360 358 358 356 356 356 356 357 358 359 359 358 357 355 354 355 355 356 356 356 355 356 356 355 354 354 355 356 356 356 355 355 354 354 354 354 351 340 325 315 313 314 317 321 328 337 346 353 358 359 359 360 1 3 5 7 8 8 7 6 5 4 4 4 4 5
202 198 195 200 209 211 220 241 276 322 334 340 345 349 351 356 360 359 358 356 354 352 350 348 348 348 349 350 352 353 353 353 352 351 351 351 350 350 349 349 349 349 349 349 350 350 350 350 350 349 348 347 346 346 346 346 344 337 324 312 305 305 309 314 320 326 334 342 348 351 351 352 354 357 359 1 2 2 1 1 0 0 1 1 2
207 206 205 212 220 225 230 245 268 292 309 319 328 334 338 344 348 351 352 352 351 348 345 344 342 342 342 343 344 345 346 346 347 347 347 346 346 345 344 344 344 344 344 345 345 346 346 345 344 343 342 341 341 340 340 339 339 337 330 316 303 297 297 301 306 310 317 323 330 336 341 344 347 351 353 354 355 355 356 356 357 357 359 360 1
215 216 216 220 228 236 242 250 264 279 294 304 313 320 325 330 335 340 342 344 345 345 343 341 339 338 338 337 337 338 339 340 342 343 343 343 342 342 341 341 341 341 341 342 342 341 341 340 339 338 337 336 335 335 334 333 331 330 327 318 305 294 290 290 292 297 303 309 314 320 326 333 339 344 347 348 348 349 350 351 352 353 355 357 358
224 229 231 232 236 245 252 257 264 275 287 297 304 309 314 319 324 329 333 336 338 340 339 338 337 337 335 334 333 333 334 336 337 339 340 340 340 340 340 340 339 339 339 338 338 338 337 336 335 334 333 332 331 330 328 327 326 324 322 319 309 297 288 284 283 285 290 297 303 308 313 320 327 334 338 342 344 345 347 348 349 350 351 353 354
231 238 243 245 247 253 259 265 270 275 283 293 299 304 308 311 317 322 326 329 332 334 335 335 335 335 334 332 332 331 332 333 335 336 337 338 338 338 338 337 337 337 336 335 335 334 333 332 331 330 329 328 327 326 325 324 323 321 320 318 314 304 291 283 279 279 280 284 290 297 304 310 316 323 329 335 340 343 345 346 348 349 350 350 351
238 244 249 253 257 261 266 273 277 280 284 290 296 300 303 305 310 317 321 323 327 330 331 330 331 331 331 330 330 330 331 332 333 334 334 335 335 335 335 335 334 334 333 333 332 330 329 329 328 327 326 326 325 324 323 322 321 320 318 316 313 308 298 286 280 278 278 279 283 288 294 301 307 313 320 327 334 339 342 344 346 348 349 349 350
245 250 256 260 264 268 272 277 281 284 286 289 293 296 299 300 305 311 316 320 323 325 326 326 327 327 328 328 328 328 329 330 331 331 332 332 332 332 332 332 331 331 330 330 329 328 327 326 326 325 325 325 325 324 323 321 320 318 316 314 311 309 302 291 282 279 281 282 283 283 286 292 299 305 313 320 327 334 338 341 344 346 348 348 349
251 256 261 265 268 271 274 277 281 284 287 289 291 293 295 296 300 307 313 316 319 321 322 323 324 325 326 326 326 327 328 329 329 329 329 330 330 330 330 329 329 329 328 328 327 326 325 325 325 325 326 326 326 325 323 321 319 317 314 311 308 306 303 294 284 278 279 283 284 284 284 286 292 299 306 313 320 327 332 336 340 344 346 347 348
253 257 260 264 268 271 273 275 278 282 285 288 290 293 294 294 296 302 308 312 314 316 318 320 322 323 324 324 325 326 326 327 327 327 328 328 328 327 327 327 327 327 326 325 325 324 324 325 326 327 327 326 325 324 322 320 318 316 313 309 306 304 301 295 285 278 278 281 284 286 285 285 288 294 300 307 314 319 325 330 336 340 345 346 348
254 256 259 262 266 269 272 274 276 280 284 288 290 292 293 295 296 298 302 305 309 312 315 318 321 322 322 323 323 324 324 325 325 325 325 325 325 326 326 326 326 325 324 324 324 324 325 326 327 328 327 326 324 322 321 319 318 316 313 309 306 303 300 295 285 276 275 277 281 286 288 289 290 292 298 305 309 314 319 325 331 337 343 346 347
255 258 260 263 266 270 273 276 278 280 283 286 289 292 293 294 296 297 299 302 307 311 314 317 319 320 320 320 320 322 323 323 323 323 323 324 324 325 325 324 324 323 324 324 325 326 327 327 328 328 328 325 323 321 321 320 318 316 313 310 307 304 301 296 284 274 272 274 279 285 290 293 295 295 299 304 307 310 316 321 327 334 340 344 345
257 259 263 267 269 272 274 277 279 281 283 285 288 290 292 293 294 297 301 305 308 311 313 315 316 317 317 318 319 320 321 322 321 322 322 323 323 324 324 323 323 324 324 325 326 327 328 329 329 329 327 325 323 322 321 320 319 317 314 311 308 305 302 296 283 272 270 274 279 286 292 296 299 300 301 304 307 310 314 318 323 329 336 340 343
258 261 264 268 272 274 276 278 280 282 283 285 287 288 290 292 294 298 303 306 308 310 312 313 314 314 316 317 318 319 320 320 320 321 322 322 323 323 323 323 323 325 326 327 328 329 329 330 331 329 327 325 325 323 322 320 319 317 315 313 310 306 302 294 281 271 270 275 281 287 293 297 300 303 304 305 307 310 313 316 321 327 332 336 339
257 261 265 269 271 274 277 279 280 282 284 286 287 289 291 294 297 300 302 304 306 308 309 311 312 314 315 316 317 318 318 319 320 321 322 322 323 323 323 323 324 326 327 328 329 330 330 332 333 330 327 325 325 324 321 319 319 319 318 316 313 309 304 294 281 274 275 278 283 289 295 299 302 304 305 305 307 310 314 317 322 326 330 333 337
257 261 265 268 271 273 276 280 283 285 287 289 290 291 293 296 298 300 301 303 304 306 308 310 312 313 314 315 315 316 318 319 320 321 322 322 323 324 324 325 326 327 328 328 329 330 330 332 332 330 328 326 325 323 319 317 319 320 319 319 317 312 305 296 285 280 281 284 288 295 300 303 306 307 307 307 309 313 317 321 324 328 330 332 335
256 260 264 268 272 276 279 282 285 288 290 290 291 293 295 296 298 299 301 302 303 305 308 310 312 312 313 314 315 317 318 319 320 321 322 322 323 324 324 325 326 327 328 329 330 331 331 331 331 331 329 328 326 323 320 319 321 322 321 321 319 314 305 297 289 285 286 287 292 300 305 307 309 309 309 309 311 315 319 323 326 329 331 332 334
255 259 264 269 274 277 281 284 287 288 290 291 292 294 295 296 297 298 300 301 303 306 309 310 311 311 313 314 316 317 318 319 320 321 322 322 323 324 324 324 325 326 328 331 332 333 332 332 332 332 331 330 329 327 325 326 327 327 327 325 321 315 305 296 290 287 287 290 295 301 304 306 307 309 310 312 314 316 320 322 325 328 331 332 333
255 259 264 268 274 279 283 286 288 289 289 290 292 293 294 295 296 297 299 302 305 307 308 310 311 312 313 314 315 316 317 318 320 321 322 323 324 325 325 326 326 328 330 332 334 335 334 333 334 334 333 332 332 331 331 331 331 331 331 328 322 314 305 297 292 289 288 290 294 297 299 301 304 308 311 314 315 317 320 321 323 326 329 331 332
256 260 264 269 275 280 283 286 287 288 289 290 291 292 293 294 295 297 300 303 305 307 309 310 311 312 312 313 313 315 316 318 320 321 323 325 325 326 327 327 328 329 331 334 337 338 335 334 334 334 333 333 333 334 333 331 331 332 332 330 323 315 308 302 296 293 292 292 293 295 299 303 305 309 313 314 315 317 320 321 322 324 327 329 331
258 262 266 271 276 279 282 285 286 288 289 290 290 291 293 294 297 299 301 303 305 307 309 310 311 311 311 311 312 314 316 318 320 322 324 325 326 327 328 328 330 331 334 337 340 339 336 334 334 333 333 333 333 334 332 329 330 332 331 329 325 318 311 305 299 297 297 296 296 297 304 308 307 308 311 313 314 317 320 320 321 323 325 327 329
260 264 269 273 276 278 281 284 286 287 288 289 290 291 293 296 298 300 302 304 306 307 308 308 309 309 309 310 312 314 316 318 321 322 323 324 325 326 328 330 332 334 336 339 342 340 335 333 332 331 331 332 332 332 331 329 329 331 332 330 326 322 316 308 303 302 301 301 300 302 307 310 307 306 310 312 313 316 319 320 321 322 324 326 328
261 265 270 273 275 277 280 284 286 287 287 288 289 291 294 296 298 300 302 304 305 305 306 307 307 307 308 310 312 313 315 318 320 321 322 324 326 327 330 332 333 335 336 338 341 337 334 333 332 328 328 330 330 328 327 326 325 329 332 331 328 327 322 315 309 307 305 305 305 307 310 310 307 307 310 312 312 314 316 318 319 321 323 325 327
261 265 269 272 275 278 281 284 285 285 286 287 289 291 294 296 298 300 302 303 303 303 304 305 304 305 307 309 310 311 313 315 318 320 323 327 329 330 332 332 333 334 335 337 338 335 332 333 330 326 326 327 328 326 324 323 322 324 329 330 330 332 330 324 320 316 313 311 309 309 310 309 308 308 309 310 310 310 312 314 315 318 321 323 325
261 264 267 271 275 278 280 282 284 284 284 286 288 291 293 295 298 300 300 300 301 302 302 302 302 303 305 307 307 309 311 313 317 321 326 329 329 330 332 331 331 332 333 335 336 333 331 331 328 325 324 323 323 323 322 321 319 319 322 324 330 335 332 328 325 323 320 317 315 315 311 307 306 307 308 309 309 308 309 310 312 316 319 321 323
261 264 267 270 273 276 279 281 282 282 284 286 287 289 291 294 296 298 298 299 300 301 301 301 301 302 303 304 306 309 311 315 319 324 328 329 328 329 330 330 330 330 331 334 334 331 331 330 327 325 323 319 317 318 320 321 320 315 315 319 326 330 325 322 323 323 321 319 319 320 314 306 305 306 306 308 309 309 309 310 311 315 318 319 322
260 263 266 269 271 274 277 278 279 281 283 284 285 288 291 293 295 296 296 296 297 299 301 301 302 303 305 307 309 312 314 317 321 324 327 327 327 327 328 328 328 327 330 333 332 330 333 333 330 327 324 319 316 314 315 320 321 317 313 313 316 318 318 318 318 318 317 316 319 322 316 307 305 306 306 308 309 309 310 310 312 316 319 318 320
260 263 265 267 269 272 274 275 277 279 280 282 284 287 291 292 293 292 291 289 290 292 293 294 296 299 303 307 310 313 315 318 320 322 324 325 325 326 327 327 326 326 329 332 331 331 335 338 335 332 328 322 319 316 315 318 322 322 319 315 315 317 317 315 314 313 314 315 319 325 319 308 304 306 306 307 307 306 308 310 313 317 319 318 318
Height
10990 10990 10989 10988 10988 10987 10986 10985 10984 10983 10982 10981 10981 10980 10979 10978 10978 10977 10975 10974 10973 10972 10970 10968 10966 10964 10963 10961 10960 10958 10955 10953 10951 10950 10948 10947 10945 10943 10941 10940 10938 10936 10935 10933 10932 10931 10929 10928 10927 10926 10925 10924 10923 10923 10922 10922 10921 10921 10922 10922 10922 10923 10923 10923 10923 10923 10922 10922 10922 10922 10922 10921 10920 10920 10919 10919 10919 10918 10918 10918 10917 10917 10916 10915 10915
10992 10992 10991 10991 10990 10990 10989 10988 10986 10985 10984 10984 10983 10982 10982 10981 10981 10979 10978 10977 10976 10975 10973 10971 10969 10968 10966 10964 10962 10960 10958 10956 10954 10952 10950 10948 10946 10944 10943 10941 10939 10937 10935 10933 10932 10930 10929 10927 10926 10925 10924 10923 10923 10922 10922 10921 10921 10921 10921 10921 10922 10922 10922 10923 10922 10922 10922 10922 10922 10922 10921 10921 10920 10919 10918 10918 10917 10917 10917 10917 10916 10916 10915 10915 10914
10995 10995 10994 10994 10993 10992 10992 10990 10989 10988 10987 10986 10986 10985 10985 10984 10983 10982 10981 10980 10980 10978 10977 10975 10973 10972 10970 10968 10965 10963 10961 10959 10957 10955 10953 10951 10949 10947 10945 10943 10941 10939 10936 10934 10932 10930 10928 10926 10925 10924 10923 10922 10922 10922 10922 10921 10921 10921 10921 10921 10922 10922 10922 10922 10922 10922 10922 10922 10922 10921 10921 10920 10919 10918 10917 10917 10916 10916 10916 10916 10915 10915 10914 10914 10913
10998 10998 10997 10996 10996 10995 10994 10993 10992 10991 10990 10990 10989 10988 10987 10987 10986 10984 10984 10983 10982 10981 10979 10978 10976 10975 10973 10971 10969 10967 10965 10963 10961 10959 10957 10954 10952 10950 10948 10946 10943 10941 10938 10936 10933 10930 10928 10925 10923 10922 10921 10921 10921 10921 10921 10921 10921 10921 10921 10921 10922 10922 10922 10922 10922 10922 10922 10922 10921 10921 10920 10919 10918 10918 10917 10917 10916 10916 10915 10915 10915 10914 10914 10913 10913
11001 11001 11000 10999 10998 10997 10996 10995 10995 10994 10994 10993 10992 10991 10990 10989 10987 10987 10986 10985 10984 10983 10981 10980 10979 10977 10976 10974 10972 10970 10969 10967 10965 10963 10961 10958 10956 10954 10952 10949 10946 10943 10941 10938 10935 10932 10929 10926 10923 10921 10920 10920 10920 10921 10921 10921 10922 10922 10922 10922 10922 10922 10922 10922 10922 10922 10921 10921 10920 10920 10919 10918 10918 10918 10917 10917 10916 10915 10915 10914 10914 10913 10913 10912 10912
11004 11003 11002 11001 11001 11000 10999 10998 10998 10997 10997 10996 10995 10994 10993 10992 10990 10990 10989 10988 10986 10985 10984 10982 10982 10981 10979 10977 10975 10974 10972 10970 10968 10966 10964 10962 10960 10958 10955 10952 10949 10946 10944 10942 10939 10935 10931 10928 10924 10922 10920 10920 10920 10921 10921 10922 10922 10922 10922 10923 10923 10923 10923 10922 10922 10922 10921 10920 10920 10919 10919 10918 10918 10918 10917 10917 10916 10915 10914 10913 10913 10912 10912 10911 10911
11006 11005 11004 11004 11003 11003 11002 11001 11000 11000 10999 10998 10997 10997 10996 10994 10993 10993 10991 10990 10989 10987 10986 10986 10985 10984 10982 10980 10978 10976 10974 10972 10971 10969 10967 10965 10964 10961 10958 10956 10953 10950 10948 10945 10942 10939 10935 10931 10927 10924 10922 10921 10921 10921 10922 10923 10923 10924 10924 10924 10924 10924 10923 10923 10922 10922 10921 10920 10920 10919 10919 10918 10918 10917 10916 10916 10915 10914 10913 10913 10912 10911 10911 10910 10910
11008 11007 11007 11006 11006 11005 11004 11003 11003 11002 11002 11001 11000 10999 10998 10997 10996 10995 10994 10993 10991 10990 10989 10988 10987 10986 10984 10981 10979 10977 10976 10975 10974 10972 10971 10969 10967 10965 10962 10960 10957 10954 10951 10948 10946 10943 10939 10935 10932 10929 10926 10924 10924 10924 10924 10925 10925 10925 10925 10925 10924 10924 10924 10923 10923 10922 10922 10921 10920 10920 10919 10918 10918 10917 10916 10915 10914 10914 10913 10912 10911 10911 10910 10910 10909
11009 11010 11010 11009 11008 11007 11007 11006 11005 11005 11004 11003 11002 11002 11001 11000 10999 10998 10997 10995 10994 10993 10992 10990 10989 10987 10986 10983 10981 10980 10979 10978 10976 10975 10973 10972 10970 10968 10966 10963 10961 10958 10955 10952 10949 10946 10943 10940 10938 10935 10932 10929 10928 10927 10927 10927 10926 10926 10926 10925 10925 10925 10924 10924 10923 10923 10922 10922 10921 10920 10919 10918 10918 10917 10916 10915 10914 10914 10913 10912 10911 10910 10909 10909 10908
11011 11012 11012 11011 11010 11009 11009 11008 11007 11007 11006 11005 11005 11004 11003 11002 11001 11000 10998 10997 10996 10995 10994 10993 10991 10990 10988 10986 10985 10983 10982 10981 10979 10977 10976 10974 10972 10971 10969 10966 10964 10961 10959 10956 10954 10951 10948 10945 10944 10941 10938 10936 10934 10932 10931 10930 10929 10929 10928 10927 10927 10926 10925 10925 10924 10923 10923 10922 10921 10920 10919 10918 10918 10917 10916 10915 10914 10913 10912 10911 10910 10909 10908 10908 10907
11013 11013 11013 11013 11013 11012 11011 11010 11009 11009 11008 11007 11007 11005 11005 11004 11003 11002 11001 11000 10999 10998 10997 10996 10994 10992 10991 10989 10988 10987 10985 10983 10981 10979 10978 10976 10975 10973 10971 10969 10966 10964 10962 10960 10958 10955 10953 10950 10949 10946 10944 10942 10940 10938 10936 10935 10934 10932 10931 10930 10929 10928 10927 10926 10925 10925 10924 10923 10922 10921 10920 10919 10918 10917 10916 10915 10914 10913 10912 10910 10909 10908 10907 10906 10905
11015 11015 11015 11015 11014 11013 11013 11012 11011 11011 11010 11009 11008 11007 11007 11006 11005 11004 11004 11003 11002 11001 11000 10998 10997 10995 10993 10992 10991 10989 10988 10986 10983 10981 10980 10978 10976 10974 10973 10971 10969 10966 10965 10963 10961 10959 10957 10955 10953 10950 10948 10947 10945 10943 10941 10939 10938 10937 10935 10934 10932 10931 10929 10928 10927 10927 10926 10925 10924 10923 10922 10921 10920 10918 10917 10916 10915 10913 10912 10911 10909 10908 10907 10906 10904
11016 11016 11016 11016 11015 11015 11014 11014 11013 11012 11011 11011 11010 11009 11009 11008 11007 11007 11006 11005 11004 11003 11002 11001 10999 10997 10995 10993 10992 10991 10989 10987 10986 10984 10982 10980 10978 10976 10974 10973 10971 10969 10968 10966 10964 10962 10961 10959 10957 10954 10952 10950 10948 10946 10945 10943 10942 10940 10939 10937 10935 10934 10933 10932 10930 10929 10928 10927 10926 10925 10924 10923 10922 10920 10919 10918 10916 10915 10914 10912 10911 10909 10908 10906 10905
11017 11017 11017 11017 11016 11016 11015 11015 11014 11013 11013 11012 11012 11011 11010 11010 11009 11009 11008 11006 11005 11005 11004 11003 11001 10999 10996 10995 10994 10992 10991 10989 10988 10986 10984 10982 10980 10978 10976 10974 10973 10972 10970 10968 10966 10965 10963 10962 10960 10958 10956 10954 10952 10950 10948 10947 10945 10944 10942 10941 10939 10937 10936 10935 10934 10932 10931 10930 10928 10927 10926 10925 10924 10922 10921 10920 10918 10917 10915 10914 10912 10911 10909 10907 10906
11018 11018 11018 11018 11017 11017 11017 11016 11015 11015 11014 11013 11013 11013 11012 11011 11011 11010 11009 11008 11007 11006 11006 11004 11003 11000 10998 10997 10995 10994 10993 10991 10990 10988 10986 10984 10981 10979 10978 10976 10975 10973 10972 10970 10969 10967 10966 10964 10962 10961 10959 10957 10955 10954 10952 10950 10949 10947 10946 10944 10942 10941 10940 10938 10936 10935 10933 10932 10931 10929 10928 10927 10925 10923 10922 10921 10919 10918 10916 10914 10913 10911 10909 10908 10906
11019 11019 11019 11019 11018 11018 11018 11017 11017 11016 11015 11015 11014 11014 11013 11013 11012 11011 11010 11010 11009 11008 11007 11005 11004 11002 11000 10999 10997 10995 10994 10993 10991 10989 10987 10985 10983 10982 10980 10979 10977 10975 10973 10972 10971 10970 10968 10966 10965 10963 10962 10960 10958 10957 10955 10953 10952 10950 10949 10947 10945 10944 10942 10941 10939 10938 10936 10935 10933 10932 10930 10929 10927 10925 10924 10922 10921 10919 10917 10915 10913 10911 10909 10907 10904
11019 11019 11019 11019 11019 11019 11018 11018 11017 11017 11017 11016 11016 11015 11015 11014 11013 11012 11011 11011 11010 11009 11007 11006 11005 11003 11002 11000 10998 10997 10995 10994 10992 10990 10988 10987 10985 10983 10982 10980 10978 10977 10975 10974 10973 10972 10971 10969 10967 10966 10964 10962 10961 10959 10958 10956 10955 10953 10951 10949 10948 10946 10945 10944 10942 10941 10939 10938 10936 10934 10933 10931 10929 10927 10926 10924 10922 10920 10918 10916 10914 10911 10909 10906 10903
11019 11019 11019 11019 11019 11019 11019 11018 11018 11018 11017 11017 11016 11016 11015 11015 11014 11013 11012 11011 11010 11009 11008 11007 11005 11004 11002 11000 10999 10998 10997 10995 10994 10992 10990 10988 10986 10985 10983 10981 10980 10978 10977 10976 10975 10974 10972 10970 10969 10968 10966 10964 10963 10961 10960 10958 10956 10955 10953 10951 10950 10948 10947 10945 10944 10942 10940 10939 10937 10935 10934 10932 10930 10928 10927 10925 10923 10921 10919 10916 10914 10911 10908 10906 10903
11019 11019 11019 11020 11019 11019 11019 11019 11018 11018 11017 11017 11017 11016 11016 11015 11014 11013 11012 11011 11010 11009 11008 11007 11006 11004 11003 11001 11000 10998 10997 10996 10994 10992 10991 10989 10988 10986 10984 10982 10981 10979 10979 10978 10976 10975 10973 10971 10970 10969 10967 10966 10964 10963 10961 10960 10958 10956 10955 10953 10951 10950 10948 10946 10944 10943 10941 10939 10937 10936 10934 10932 10930 10928 10926 10924 10922 10920 10918 10916 10913 10911 10908 10905 10901
11019 11019 11019 11019 11019 11019 11019 11019 11018 11018 11017 11017 11017 11016 11015 11015 11014 11013 11012 11012 11011 11010 11009 11007 11006 11005 11003 11002 11000 10999 10997 10995 10994 10992 10991 10990 10988 10987 10985 10983 10982 10981 10980 10978 10976 10975 10974 10972 10971 10969 10968 10967 10965 10964 10963 10961 10959 10957 10956 10954 10952 10950 10949 10947 10945 10943 10941 10939 10938 10936 10934 10932 10930 10928 10926 10924 10922 10920 10918 10915 10912 10910 10907 10903 10900
11019 11019 11019 11019 11019 11019 11019 11019 11018 11018 11017 11017 11016 11016 11015 11015 11014 11013 11013 11012 11011 11010 11009 11008 11006 11005 11004 11002 11001 10999 10997 10995 10994 10993 10992 10990 10989 10987 10985 10984 10983 10982 10980 10978 10976 10975 10975 10973 10972 10970 10969 10967 10965 10964 10963 10961 10960 10958 10956 10954 10952 10951 10949 10947 10945 10943 10942 10940 10938 10936 10934 10933 10931 10929 10926 10924 10922 10919 10917 10914 10912 10909 10906 10903 10899
11018 11019 11019 11019 11019 11019 11018 11018 11018 11017 11017 11016 11016 11016 11015 11015 11014 11013 11013 11012 11011 11010 11009 11008 11006 11005 11004 11002 11001 10999 10997 10996 10995 10994 10992 10991 10989 10987 10986 10984 10983 10981 10980 10978 10978 10977 10975 10973 10972 10971 10969 10967 10966 10964 10963 10961 10959 10958 10956 10954 10952 10951 10949 10947 10945 10944 10942 10940 10938 10936 10934 10932 10931 10928 10926 10924 10921 10919 10916 10913 10911 10908 10905 10902 10898
11018 11018 11018 11018 11018 11018 11018 11018 11017 11017 11016 11016 11016 11015 11015 11015 11014 11013 11013 11012 11011 11010 11009 11008 11006 11005 11004 11002 11001 10999 10998 10996 10995 10994 10993 10991 10990 10988 10987 10986 10984 10983 10981 10980 10979 10978 10976 10974 10972 10971 10969 10967 10966 10965 10962 10960 10958 10957 10955 10954 10952 10950 10949 10947 10945 10943 10942 10940 10938 10936 10934 10932 10930 10928 10925 10923 10920 10918 10915 10912 10909 10907 10904 10901 10897
11017 11017 11017 11018 11017 11017 11017 11017 11017 11017 11016 11016 11016 11015 11015 11014 11014 11013 11013 11012 11011 11010 11009 11007 11006 11005 11004 11002 11001 10999 10998 10996 10995 10993 10992 10991 10990 10988 10987 10986 10985 10984 10983 10981 10979 10977 10975 10973 10972 10970 10968 10967 10966 10964 10962 10960 10958 10956 10954 10952 10951 10950 10948 10947 10945 10943 10941 10939 10937 10935 10933 10931 10929 10927 10924 10922 10919 10916 10914 10911 10908 10906 10903 10900 10896
11016 11016 11017 11017 11017 11017 11017 11017 11017 11016 11016 11016 11015 11015 11014 11014 11014 11013 11013 11012 11011 11010 11008 11007 11006 11005 11004 11002 11001 11000 10998 10997 10995 10993 10992 10991 10990 10989 10987 10986 10985 10983 10982 10980 10978 10976 10974 10972 10970 10969 10967 10966 10964 10962 10961 10959 10957 10955 10952 10950 10949 10948 10947 10945 10943 10942 10940 10938 10936 10934 10932 10930 10928 10926 10923 10921 10918 10916 10913 10910 10908 10905 10902 10899 10895
11015 11015 11016 11016 11016 11016 11016 11016 11016 11016 11016 11015 11015 11015 11014 11014 11014 11013 11013 11012 11011 11010 11008 11007 11006 11005 11003 11002 11001 10999 10998 10997 10995 10994 10992 10991 10990 10989 10987 10985 10983 10981 10980 10978 10976 10974 10973 10971 10969 10968 10966 10964 10962 10960 10958 10957 10955 10953 10951 10948 10947 10945 10944 10943 10942 10940 10939 10937 10935 10933 10931 10929 10927 10925 10922 10920 10917 10915 10913 10910 10907 10904 10901 10898 10894
11013 11014 11014 11015 11015 11015 11015 11016 11016 11016 11015 11015 11014 11014 11014 11014 11013 11013 11012 11011 11010 11009 11008 11006 11005 11004 11003 11001 11000 10999 10997 10996 10995 10994 10992 10990 10989 10988 10986 10984 10981 10979 10977 10975 10973 10972 10970 10969 10968 10966 10964 10962 10960 10958 10956 10954 10953 10951 10950 10947 10945 10943 10941 10940 10939 10938 10937 10935 10933 10932 10930 10928 10926 10924 10921 10919 10917 10914 10912 10909 10906 10903 10899 10896 10892
11013 11013 11013 11014 11014 11014 11014 11015 11015 11015 11015 11014 11014 11013 11013 11013 11012 11012 11011 11010 11009 11008 11007 11006 11004 11003 11002 11000 10999 10998 10996 10995 10993 10992 10991 10989 10987 10985 10983 10981 10979 10977 10975 10973 10971 10970 10968 10967 10965 10963 10962 10960 10957 10955 10953 10951 10950 10948 10946 10945 10942 10940 10938 10937 10936 10935 10934 10933 10932 10930 10928 10926 10924 10922 10920 10918 10915 10913 10910 10907 10904 10900 10897 10893 10889
11012 11012 11012 11012 11013 11013 11013 11013 11014 11014 11014 11014 11013 11013 11012 11012 11011 11010 11010 11009 11008 11007 11006 11004 11003 11002 11000 10999 10998 10996 10995 10993 10992 10990 10988 10987 10985 10983 10981 10979 10978 10976 10974 10972 10970 10968 10966 10964 10962 10960 10958 10956 10954 10952 10949 10947 10945 10943 10941 10940 10938 10937 10935 10934 10933 10932 10931 10930 10929 10928 10926 10924 10922 10920 10918 10916 10913 10911 10908 10905 10902 10898 10895 10891 10887
11011 11010 11011 11011 11012 11012 11012 11012 11012 11013 11013 11013 11013 11012 11011 11010 11010 11009 11008 11007 11007 11006 11004 11003 11002 11001 10999 10998 10997 10995 10994 10992 10990 10988 10987 10985 10983 10981 10980 10978 10976 10975 10973 10971 10968 10966 10964 10961 10959 10957 10954 10952 10949 10947 10944 10942 10940 10938 10936 10935 10934 10933 10932 10930 10929 10928 10928 10927 10927 10925 10924 10922 10920 10918 10916 10913 10911 10908 10906 10903 10900 10896 10893 10889 10885
11009 11009 11009 11010 11010 11011 11011 11011 11010 11010 11010 11011 11011 11011 11010 11009 11008 11007 11006 11005 11005 11004 11003 11002 11000 10999 10998 10997 10996 10994 10993 10991 10990 10988 10986 10984 10982 10980 10978 10976 10974 10973 10971 10969 10966 10964 10961 10958 10955 10952 10949 10947 10944 10942 10939 10937 10935 10933 10932 10930 10929 10928 10928 10926 10926 10925 10924 10924 10923 10922 10921 10919 10917 10915 10913 10911 10908 10906 10904 10901 10898 10894 10891 10887 10883
11008 11008 11008 11008 11008 11009 11009 11009 11008 11008 11008 11008 11008 11008 11008 11008 11007 11006 11005 11004 11003 11002 11001 11000 10999 10998 10997 10995 10994 10993 10992 10990 10988 10987 10985 10983 10981 10979 10977 10975 10972 10970 10967 10965 10963 10960 10957 10954 10951 10948 10945 10942 10940 10937 10935 10932 10931 10929 10927 10926 10925 10924 10923 10922 10922 10921 10921 10920 10919 10919 10917 10916 10914 10912 10910 10908 10906 10904 10902 10899 10896 10893 10889 10885 10881
11006 11006 11006 11006 11007 11007 11007 11007 11007 11006 11006 11005 11005 11006 11006 11006 11005 11005 11004 11002 11001 11000 10999 10998 10997 10996 10995 10994 10993 10991 10990 10988 10987 10985 10983 10981 10979 10977 10975 10973 10970 10967 10964 10961 10958 10956 10953 10950 10948 10945 10941 10938 10936 10934 10931 10929 10927 10925 10924 10922 10921 10920 10919 10918 10917 10917 10917 10917 10915 10914 10913 10912 10911 10909 10907 10905 10903 10901 10899 10897 10894 10891 10887 10883 10880
11004 11004 11004 11005 11005 11005 11004 11004 11005 11004 11004 11003 11003 11003 11003 11003 11003 11003 11002 11001 10999 10998 10997 10996 10995 10994 10993 10992 10991 10990 10988 10987 10985 10983 10981 10979 10977 10975 10972 10970 10967 10963 10960 10957 10954 10951 10948 10946 10944 10942 10939 10936 10933 10931 10929 10926 10924 10922 10920 10919 10917 10916 10916 10915 10914 10913 10913 10913 10912 10911 10910 10909 10907 10906 10904 10902 10901 10899 10897 10894 10892 10889 10885 10882 10878
11001 11001 11002 11002 11002 11002 11002 11002 11002 11002 11002 11001 11000 11000 11000 11000 11000 11000 11000 10999 10998 10997 10995 10994 10993 10992 10991 10989 10988 10987 10986 10984 10982 10981 10979 10977 10975 10972 10970 10967 10963 10960 10956 10953 10950 10947 10945 10942 10940 10938 10936 10933 10930 10928 10926 10924 10922 10919 10917 10915 10914 10913 10912 10911 10911 10910 10909 10909 10909 10908 10907 10906 10905 10903 10901 10900 10898 10896 10894 10892 10889 10887 10883 10880 10876
10998 10999 10999 10999 10999 11000 11000 11000 10999 10999 10999 10999 10998 10997 10997 10997 10997 10997 10997 10996 10996 10995 10993 10992 10991 10990 10989 10987 10986 10985 10983 10981 10979 10978 10976 10974 10972 10969 10966 10963 10960 10957 10953 10950 10948 10945 10942 10939 10936 10934 10932 10930 10927 10925 10923 10921 10919 10917 10914 10913 10911 10910 10909 10908 10907 10907 10906 10906 10906 10905 10904 10903 10902 10901 10899 10898 10896 10894 10891 10889 10887 10884 10881 10878 10874
10996 10996 10997 10997 10997 10997 10997 10997 10997 10997 10996 10996 10995 10995 10994 10994 10994 10994 10994 10993 10993 10992 10991 10990 10989 10987 10986 10985 10984 10982 10981 10979 10976 10974 10972 10970 10968 10966 10963 10959 10956 10954 10951 10948 10945 10943 10940 10938 10935 10932 10928 10926 10924 10922 10920 10917 10916 10914 10911 10910 10908 10907 10906 10905 10904 10904 10904 10904 10904 10903 10902 10901 10900 10899 10897 10895 10893 10891 10889 10886 10884 10881 10878 10875 10872
10993 10994 10994 10994 10994 10994 10994 10994 10994 10994 10994 10993 10993 10992 10992 10991 10991 10991 10991 10991 10990 10989 10988 10987 10986 10985 10983 10982 10980 10979 10978 10976 10974 10972 10969 10965 10963 10961 10958 10956 10954 10952 10949 10946 10943 10940 10938 10936 10934 10931 10927 10924 10921 10919 10916 10914 10912 10910 10908 10906 10905 10904 10903 10902 10902 10902 10902 10902 10902 10902 10901 10899 10898 10897 10895 10893 10891 10889 10887 10884 10881 10878 10875 10872 10869
10991 10991 10991 10991 10992 10991 10991 10991 10991 10991 10991 10991 10990 10990 10990 10989 10989 10988 10988 10987 10987 10986 10985 10984 10983 10982 10981 10979 10978 10976 10974 10973 10971 10969 10966 10963 10959 10956 10953 10951 10950 10949 10947 10945 10942 10939 10936 10934 10932 10930 10927 10924 10920 10917 10914 10911 10909 10907 10905 10903 10902 10901 10900 10899 10900 10900 10900 10900 10900 10900 10899 10897 10896 10895 10893 10891 10889 10887 10885 10882 10879 10876 10872 10869 10866
10989 10989 10989 10989 10989 10988 10988 10988 10988 10988 10988 10988 10988 10988 10987 10987 10986 10985 10984 10984 10984 10983 10983 10981 10980 10978 10977 10976 10974 10973 10971 10969 10967 10965 10963 10961 10958 10955 10951 10948 10946 10944 10943 10942 10941 10938 10935 10932 10930 10928 10926 10923 10920 10917 10914 10911 10909 10906 10904 10902 10901 10900 10898 10897 10898 10898 10898 10897 10898 10898 10897 10895 10893 10892 10890 10888 10885 10884 10882 10880 10877 10874 10870 10866 10863
10986 10986 10986 10986 10986 10986 10985 10985 10985 10986 10985 10985 10985 10985 10985 10984 10983 10982 10981 10980 10980 10980 10979 10978 10976 10974 10973 10971 10970 10969 10967 10965 10964 10962 10960 10958 10955 10953 10950 10947 10945 10942 10940 10939 10938 10935 10932 10930 10928 10926 10923 10921 10919 10915 10912 10910 10908 10904 10902 10901 10899 10898 10897 10896 10896 10896 10896 10895 10895 10896 10895 10892 10890 10888 10886 10885 10882 10880 10879 10877 10874 10871 10868 10864 10860
10983 10984 10984 10984 10984 10983 10983 10983 10983 10983 10983 10983 10983 10982 10982 10981 10980 10980 10978 10977 10976 10976 10975 10974 10973 10971 10969 10967 10966 10964 10963 10962 10960 10959 10957 10955 10952 10950 10948 10946 10943 10941 10939 10937 10935 10933 10930 10927 10924 10922 10919 10917 10915 10912 10910 10907 10905 10903 10901 10899 10897 10896 10896 10895 10895 10895 10894 10893 10892 10891 10891 10889 10887 10884 10883 10882 10879 10877 10875 10873 10870 10868 10865 10861 10857
10980 10981 10981 10982 10982 10981 10981 10980 10980 10980 10980 10979 10979 10979 10978 10978 10977 10977 10976 10974 10973 10972 10971 10969 10968 10966 10965 10963 10962 10961 10960 10958 10957 10955 10953 10951 10949 10947 10946 10944 10941 10939 10938 10936 10934 10931 10927 10924 10921 10919 10916 10913 10911 10909 10907 10904 10903 10901 10899 10897 10896 10895 10895 10894 10893 10893 10893 10891 10889 10887 10887 10886 10884 10882 10880 10879 10876 10873 10871 10869 10866 10864 10861 10858 10854
10977 10978 10978 10979 10979 10979 10978 10977 10977 10977 10977 10977 10976 10976 10975 10974 10973 10973 10972 10971 10970 10968 10967 10965 10964 10962 10960 10959 10958 10957 10956 10955 10954 10953 10951 10949 10947 10945 10943 10941 10939 10937 10936 10935 10932 10929 10925 10921 10918 10915 10913 10911 10908 10907 10904 10902 10900 10899 10897 10896 10895 10894 10893 10893 10892 10891 10891 10890 10888 10885 10883 10883 10882 10880 10878 10876 10873 10870 10868 10865 10862 10860 10857 10854 10851
10974 10974 10975 10976 10976 10976 10975 10974 10974 10974 10974 10974 10973 10972 10972 10970 10970 10969 10968 10968 10966 10965 10963 10962 10960 10958 10956 10955 10954 10953 10952 10952 10951 10949 10948 10946 10944 10942 10940 10938 10936 10935 10934 10932 10930 10927 10923 10920 10916 10912 10910 10908 10906 10904 10902 10900 10898 10897 10896 10895 10894 10893 10892 10891 10891 10890 10889 10888 10886 10884 10881 10881 10880 10877 10874 10873 10870 10867 10864 10861 10858 10856 10853 10850 10847
10970 10970 10971 10971 10971 10972 10971 10971 10971 10971 10971 10971 10970 10969 10969 10967 10966 10965 10964 10963 10962 10961 10960 10958 10956 10954 10953 10951 10950 10949 10949 10948 10947 10945 10944 10942 10940 10939 10937 10935 10933 10931 10930 10929 10927 10924 10921 10918 10915 10911 10907 10906 10904 10901 10899 10898 10896 10896 10895 10894 10893 10893 10892 10891 10890 10889 10888 10886 10885 10882 10879 10877 10877 10874 10871 10870 10867 10864 10861 10858 10855 10852 10849 10846 10844
10966 10967 10967 10966 10966 10967 10968 10967 10967 10968 10968 10967 10967 10966 10966 10964 10962 10961 10960 10959 10958 10957 10956 10954 10952 10951 10950 10948 10947 10946 10945 10945 10944 10942 10940 10938 10936 10934 10933 10931 10929 10927 10926 10925 10924 10921 10918 10916 10913 10909 10905 10902 10900 10898 10896 10896 10895 10894 10894 10893 10892 10892 10890 10889 10888 10887 10886 10884 10882 10881 10877 10873 10872 10870 10867 10866 10864 10860 10857 10854 10851 10848 10845 10842 10839
10962 10963 10963 10962 10962 10963 10963 10963 10963 10964 10964 10964 10963 10963 10963 10961 10959 10957 10955 10954 10953 10952 10952 10950 10948 10947 10947 10946 10944 10943 10942 10941 10940 10939 10937 10935 10932 10930 10929 10926 10924 10923 10922 10920 10919 10917 10914 10912 10910 10907 10904 10899 10896 10894 10893 10893 10892 10892 10892 10890 10890 10890 10888 10886 10885 10882 10881 10878 10876 10876 10873 10867 10866 10865 10862 10860 10859 10855 10852 10849 10846 10843 10841 10837 10835
10957 10958 10958 10959 10959 10958 10958 10958 10959 10960 10960 10960 10960 10960 10959 10958 10956 10954 10951 10949 10947 10947 10946 10945 10944 10944 10943 10943 10941 10939 10938 10936 10936 10935 10934 10932 10929 10927 10926 10923 10921 10919 10917 10916 10915 10912 10909 10908 10905 10903 10901 10897 10894 10892 10890 10889 10889 10889 10889 10888 10887 10887 10885 10882 10880 10877 10874 10869 10867 10868 10866 10860 10859 10860 10857 10855 10852 10850 10848 10845 10841 10839 10837 10833 10830
10953 10954 10954 10955 10955 10954 10954 10954 10955 10956 10956 10956 10956 10955 10955 10954 10953 10951 10948 10946 10944 10943 10942 10940 10939 10939 10939 10938 10937 10935 10934 10932 10931 10930 10930 10928 10926 10924 10923 10921 10918 10916 10914 10913 10911 10907 10905 10903 10900 10898 10896 10893 10892 10890 10888 10886 10886 10886 10886 10885 10884 10883 10880 10878 10875 10871 10867 10862 10860 10861 10859 10853 10852 10853 10852 10850 10847 10844 10843 10841 10838 10836 10833 10830 10827
10948 10949 10950 10950 10950 10950 10950 10950 10950 10951 10951 10951 10951 10951 10951 10950 10949 10947 10946 10944 10944 10943 10941 10939 10938 10936 10936 10935 10934 10932 10930 10929 10928 10926 10926 10925 10923 10921 10920 10919 10916 10913 10911 10909 10907 10904 10902 10899 10896 10894 10892 10889 10888 10887 10885 10884 10883 10883 10883 10882 10881 10879 10876 10872 10868 10865 10860 10855 10853 10854 10853 10848 10846 10846 10846 10844 10841 10838 10837 10837 10835 10833 10830 10827 10823